Location: Oshawa
(43.9000°N, 78.8670°W)
Time: 16:16:54
(UTC-04:00)

Cosmos 1821 Rocket - Visible Passes

Search period start: 28 July 2016 00:00
Search period end: 07 August 2016 00:00
Orbit: 945 x 1005 km, 82.9° (Epoch: 27 July)

Date Brightness Start Highest point End Pass type
(mag) Time Alt. Az. Time Alt. Az. Time Alt. Az.
28 Jul 5.4 01:11:41 23° WSW 01:14:05 29° WNW 01:19:28 10° NNW visible
28 Jul 5.8 22:07:24 10° E 22:09:24 12° ENE 22:11:39 10° NE visible
28 Jul 3.9 23:52:03 52° S 23:53:43 81° E 23:59:58 10° N visible
29 Jul 6.1 01:36:41 12° W 01:39:52 17° WNW 01:43:48 10° NNW visible
29 Jul 5.3 22:32:24 20° ESE 22:34:12 23° E 22:38:51 10° NE visible
30 Jul 4.3 00:17:02 40° SW 00:19:05 59° W 00:25:13 10° N visible
30 Jul 4.6 22:57:21 32° SE 22:59:11 40° E 23:04:54 10° NNE visible
31 Jul 5.2 00:42:00 24° WSW 00:44:36 34° WNW 00:50:11 10° N visible
31 Jul 3.9 23:22:18 44° SSE 23:24:20 70° E 23:30:31 10° NNE visible
01 Aug 6.0 01:06:57 13° WSW 01:10:19 20° WNW 01:14:43 10° NNW visible
01 Aug 5.4 22:02:35 16° ESE 22:04:56 19° E 22:09:06 10° NE visible
01 Aug 4.2 23:47:14 38° SSW 23:49:39 68° W 23:55:50 10° N visible
02 Aug 6.4 01:34:45 10° WNW 01:36:15 11° WNW 01:37:45 10° NW visible
02 Aug 4.7 22:27:29 26° SE 22:29:52 34° E 22:35:20 10° NNE visible
03 Aug 5.0 00:12:07 25° SW 00:15:08 39° WNW 00:20:53 10° N visible
03 Aug 4.0 22:52:22 34° SSE 22:54:58 60° E 23:01:02 10° NNE visible
04 Aug 5.8 00:36:59 13° WSW 00:40:47 23° WNW 00:45:33 10° NNW visible
04 Aug 5.6 21:32:34 11° ESE 21:35:39 16° E 21:39:14 10° NE visible
04 Aug 4.0 23:17:12 33° SSW 23:20:14 79° W 23:26:26 10° N visible
05 Aug 6.4 01:04:00 10° W 01:06:40 13° WNW 01:09:19 10° NW visible
05 Aug 4.9 21:57:22 19° SE 22:00:33 29° E 22:05:43 10° NNE visible
05 Aug 4.8 23:42:00 22° SW 23:45:40 45° WNW 23:51:34 10° N visible
06 Aug 4.2 22:22:08 25° SSE 22:25:36 51° E 22:31:32 10° NNE visible
